Tulsa International Airport Airport (TUL)

 

Airport Diagram
Current Weather/Forecast (VFR Conditions)
METAR KTUL 280753Z 15005KT 10SM BKN250 19/13 A2986 RMK AO2 SLP105 T01940133
TAF KTUL 280535Z 2806/2906 16011KT P6SM BKN200 FM281500 17016G26KT P6SM SCT180 FM290200 17013G22KT P6SM BKN200 WS020/19045KT

All Charts
General
Chart Name Download
AIRPORT DIAGRAM
TAKEOFF MINIMUMS
ALTERNATE MINIMUMS
RADAR MINIMUMS

Departures
Chart Name Download
TULSA NINE

Arrivals
Chart Name Download
VINTA THREE

Approaches
Chart Name Download
ILS OR LOC RWY 18L
ILS OR LOC RWY 18R
ILS OR LOC RWY 36R
ILS RWY 36R (SA CAT I)
ILS RWY 36R (CAT II)
RNAV (GPS) RWY 08
RNAV (GPS) RWY 18L
RNAV (GPS) RWY 18R
RNAV (GPS) RWY 26
RNAV (GPS) RWY 36L
RNAV (GPS) RWY 36R
VOR/DME RWY 08
HI-VOR/DME OR TACAN RWY 26
VOR OR TACAN RWY 26